Regional Weather Roundup
Issued by NWS Cleveland, OH

Home | Current Version | Previous Version | Text Only | Print | Product List | Glossary Off
Versions: 1 2 3 4 5 6 7 8 9 10 11 12 13 14 15 16 17 18 19 20 21 22 23 24 25 26 27 28 29 30 31 32 33 34 35 36 37 38 39 40 41 42 43 44 45 46 47 48 49 50

000
ASUS41 KCLE 272110
RWRCLE
OHIO REGIONAL WEATHER ROUNDUP
NATIONAL WEATHER SERVICE CLEVELAND, OH
500 PM EDT THU AUG 27 2015

NOTE: "FAIR" INDICATES FEW OR NO CLOUDS BELOW 12,000 FEET WITH NO
SIGNIFICANT WEATHER AND/OR OBSTRUCTIONS TO VISIBILITY.

OHZ001>008-015>018-024>027-034-035-043-044-272200-
   NORTHWEST OHIO

CITY           SKY/WX    TMP DP  RH WIND       PRES   REMARKS
DEFIANCE       CLOUDY    73  54  51 CALM      30.17R
FINDLAY        CLOUDY    75  54  47 VRB3      30.15R
TOLEDO EXPRESS CLOUDY    69  54  58 NE7       30.17R
TOLEDO EXEC    CLOUDY    70  54  56 NE6       30.18R
LIMA           CLOUDY    74  55  51 CALM      30.16R
$$

OHZ009>014-019>023-028>033-038-089-272200-
   NORTHEAST OHIO

CITY           SKY/WX    TMP DP  RH WIND       PRES   REMARKS
CLE-HOPKINS    FAIR      70  55  59 N9        30.17S
CLE-LAKEFRONT  FAIR      69  55  60 NW6       30.15S
CUY CO. ARPT   MOSUNNY   70  57  64 N9        30.16F
LORAIN-ELYRIA  FAIR      69  54  58 N7        30.16S
ASHTABULA      CLOUDY    65  56  72 NW5       30.16F
AKRON-CANTON   PTSUNNY   72  52  49 NW3       30.14F
WOOSTER        PTSUNNY   71  54  54 N3        30.15S
MANSFIELD      FAIR      71  54  54 N5        30.15S
YOUNGSTOWN     PTSUNNY   72  54  53 NW10      30.14F
$$

OHZ042-051>053-060>062-070>072-077>081-272200-
  SOUTHWEST OHIO

CITY           SKY/WX    TMP DP  RH WIND       PRES   REMARKS
CINC-COVINGTON CLOUDY    75  54  47 NE3       30.15R
CINC-LUNKEN    PTSUNNY   75  57  53 NE5       30.14S
HAMILTON       CLOUDY    76  53  44 CALM      30.15S
DAYTON         PTSUNNY   76  53  44 CALM      30.16S
WRIGHT-PAT AFB FAIR      75  55  49 VRB1      30.14S
DAYTON GENERAL PTSUNNY   74  55  51 S3        30.14S
WILMINGTON     FAIR      73  54  51 S3        30.15R
$$

OHZ036-037-039>041-045>050-054>059-063>069-073>076-082>088-272200-
  CENTRAL AND SOUTHEAST OHIO

CITY           SKY/WX    TMP DP  RH WIND       PRES   REMARKS
COLUMBUS       FAIR      76  54  46 E7        30.13S
OSU AIRPORT    FAIR      74  53  48 CALM      30.13S
BOLTON FIELD   MOSUNNY   73  55  53 CALM      30.14S
RICKENBACK AFB CLOUDY    75  53  47 SW3       30.13S
NEWARK         PTSUNNY   76  53  44 NW5       30.13S
MARION         FAIR      72  53  51 CALM      30.15R
LANCASTER      PTSUNNY   75  54  47 E6        30.14S
ZANESVILLE     CLOUDY    73  51  46 E3        30.13S
NEW PHILLY     FAIR      73  55  53 CALM      30.14S
$$


USA.gov is the U.S. government's official web portal to all federal, state and local government web resources and services.